Back to catalog

BREEZE-M DEB

TANK

AliveHEO
NORAD 42751·DEBRIS·🇷🇺 Russia

Launched Jun 8, 2017 from Baikonur Cosmodrome

Loading…

Next Passes (next 24 hours)

TLE

FreshSource: Space-Track

Epoch: Sep 14, 2026, 01:47 UTC

1 42751U 17032C   26257.07472431  .00003521  00000-0  65174-3 0  9999
2 42751  49.6878 163.8080 4533941 336.6478   8.0095  6.39209906211780

Track BREEZE-M DEB in real time with AllMySat

Download on the App Store